Location: Newark
(46.3833°N, 12.2833°E)
Time: 17:55:31
(UTC+00:00)

Starlink (trailer) - Visible Passes

Search period start: 15 July 2019 00:00
Search period end: 25 July 2019 00:00
Orbit: 548 x 552 km, 53.0° (Epoch: 14 July)

Date Brightness Start Highest point End Pass type
(mag) Time Alt. Az. Time Alt. Az. Time Alt. Az.
15 Jul 5.5 01:17:06 16° SSE 01:18:14 17° SE 01:20:59 10° E visible
15 Jul 3.6 02:53:10 10° WSW 02:57:18 86° SSE 03:01:29 10° ENE visible
16 Jul 5.1 01:11:46 21° SSE 01:12:39 23° SE 01:15:56 10° E visible
16 Jul 3.7 02:47:44 10° WSW 02:51:54 77° NNW 02:56:03 10° ENE visible
17 Jul 4.7 01:06:23 28° SSE 01:07:07 30° SE 01:10:45 10° ENE visible
17 Jul 3.9 02:42:22 10° WSW 02:46:29 63° NNW 02:50:37 10° ENE visible
18 Jul 4.3 01:00:58 36° SSE 01:01:35 39° SE 01:05:27 10° ENE visible
18 Jul 4.2 02:37:03 10° W 02:41:06 53° NNW 02:45:11 10° NE visible
19 Jul 3.9 00:55:29 46° S 00:56:05 50° SE 01:00:06 10° ENE visible
19 Jul 4.5 02:31:44 10° W 02:35:44 46° NNW 02:39:45 10° NE visible
20 Jul 3.6 00:49:58 55° SSW 00:50:36 65° SE 00:54:43 10° ENE visible
20 Jul 4.7 02:26:26 10° W 02:30:23 40° NNW 02:34:20 10° NE visible
21 Jul 3.5 00:44:24 59° SW 00:45:08 83° SSE 00:49:19 10° ENE visible
21 Jul 5.0 02:21:10 10° W 02:25:02 37° NNW 02:28:55 10° ENE visible
21 Jul 6.1 23:03:11 12° E 23:03:11 12° E 23:03:43 10° E visible
22 Jul 3.6 00:38:48 53° WSW 00:39:42 80° NNW 00:43:52 10° ENE visible
22 Jul 5.1 02:15:53 10° WNW 02:19:42 34° N 02:23:32 10° ENE visible
22 Jul 5.8 22:57:31 15° E 22:57:31 15° E 22:58:31 10° ENE visible
23 Jul 3.9 00:33:08 44° W 00:34:17 66° NNW 00:38:25 10° ENE visible
23 Jul 5.2 02:10:36 10° WNW 02:14:23 33° N 02:18:09 10° ENE visible
23 Jul 5.5 22:51:47 19° E 22:51:47 19° E 22:53:13 10° ENE visible
24 Jul 4.2 00:27:25 35° W 00:28:53 55° NNW 00:32:59 10° NE visible
24 Jul 5.3 02:05:17 10° WNW 02:09:03 32° N 02:12:48 10° ENE visible
24 Jul 5.2 22:46:01 24° ENE 22:46:01 24° ENE 22:47:53 10° ENE visible
